Location: Arena
(42.5007°N, 9.4650°E)
Time: 19:22:03
(UTC+00:00)

ARGOS - Pass Details

Date: 09 April 2020
Orbit: 820 x 834 km, 98.5° (Epoch: 03 June)

Event Time Altitude Azimuth Distance (km) Brightness Sun altitude
Exits shadow 19:21:02 - 175° (S) 3,346 6.0 -15.3°
Reaches altitude 10° 19:23:23 10° 179° (S) 2,425 5.3 -15.7°
Maximum altitude 19:28:41 59° 259° (W) 949 3.7 -16.6°
Drops below altitude 10° 19:34:00 10° 339° (NNW) 2,433 6.3 -17.4°
Sets 19:36:24 0° 343° (NNW) 3,368 7.1 -17.8°
